Regional Weather Roundup
Issued by NWS

Home | Current Version | Previous Version | Graphics & Text | Print | Product List | Glossary On
Versions: 1 2 3 4 5 6 7 8 9 10 11 12 13 14 15 16 17 18 19 20 21 22 23 24 25 26 27 28 29 30 31 32 33 34 35 36 37 38 39 40 41 42 43 44 45 46 47 48 49 50
316
ASUS43 KMKX 291900
RWRWI

WISCONSIN REGIONAL WEATHER ROUNDUP
NATIONAL WEATHER SERVICE MILWAUKEE/SULLIVAN WI
200 PM CDT FRI APR 29 2016

NOTE: "FAIR" INDICATES FEW OR NO CLOUDS BELOW 12,000 FEET WITH NO
SIGNIFICANT WEATHER AND/OR OBSTRUCTIONS TO VISIBILITY.

WIZ001-002-006>008-014>016-023>028-292000-
NORTHWEST WISCONSIN

CITY           SKY/WX    TMP DP  RH WIND       PRES   REMARKS
SUPERIOR ARPT  SUNNY     49  32  51 E8        30.20S
ASHLAND        SUNNY     52  35  52 N9G17     30.20R
HAYWARD        SUNNY     56  30  37 N12G22    30.14F
SIREN          SUNNY     56  28  32 E9G17     30.13F
CUMBERLAND     SUNNY     54  32  43 NE6       30.12F
RICE LAKE      SUNNY     56  31  38 N10G17    30.13F
CHETEK         SUNNY     56  36  46 NW3       30.11F
LADYSMITH      SUNNY     58  33  39 E5        30.14S
EAU CLAIRE     NOT AVBL
MENOMONIE      MOSUNNY   59  55  85 E7        30.12F
NEW RICHMOND   SUNNY     55  31  41 NE10      30.13F
OSCEOLA        SUNNY     55  33  42 NE12      30.16F
$$

WIZ003>005-009-010-017-018-292000-
NORTH CENTRAL WISCONSIN

CITY           SKY/WX    TMP DP  RH WIND       PRES   REMARKS
MANITOWISH WTR PTSUNNY   54  31  42 W3        30.13R
ARBOR VITAE    PTSUNNY   52  32  45 S3        30.13S
WOODRUFF       PTSUNNY   52  32  45 S3        30.13S
RHINELANDER    PTSUNNY   54  33  45 NE8       30.13S
EAGLE RIVER    CLOUDY    52  30  43 CALM      30.14R
LAND O LAKES   PTSUNNY   52  31  44 CALM      30.13S
PHILLIPS       MOSUNNY   55  33  43 E6        30.11F
TOMAHAWK       MOSUNNY   55  34  45 NE5       30.13S
MEDFORD        PTSUNNY   52  37  57 E5        30.11F
MERRILL        SUNNY     54  34  47 N6        30.12S
$$

WIZ029-030-035-036-043>047-292000-
CENTRAL WISCONSIN

CITY           SKY/WX    TMP DP  RH WIND       PRES   REMARKS
WAUSAU         PTSUNNY   56  35  45 E9        30.10F
MOSINEE        CLOUDY    54  36  50 VRB6      30.13F
MARSHFIELD     CLOUDY    52  37  56 NE6       30.12S
STEVENS POINT  CLOUDY    50  32  50 E9        30.13S
WAUPACA        CLOUDY    56  32  40 NE7       30.15R
WAUTOMA        CLOUDY    53  34  48 E7        30.14
WISC RAPIDS    CLOUDY    53  33  46 SE3       30.14S
CAMP DOUGLAS   NOT AVBL
$$

WIZ011>013-019>022-031-037>040-048>050-292000-
NORTHEAST WISCONSIN

CITY           SKY/WX    TMP DP  RH WIND       PRES   REMARKS
ANTIGO         MOSUNNY   53  32  45 NE6       30.11F
SHAWANO        CLOUDY    55  34  45 E9        30.14S
OCONTO         CLOUDY    50  29  44 E7        30.16R
STURGEON BAY   CLOUDY    50  28  43 NW7       30.19R
GREEN BAY      CLOUDY    54  33  45 NE12G20   30.15R
MANITOWOC      NOT AVBL
APPLETON       PTSUNNY   52  28  40 NE7       30.13R
CLINTONVILLE   CLOUDY    54  32  43 NE9G16    30.13F
OSHKOSH        CLOUDY    52  33  48 NE7       30.14R
$$

WIZ032>034-041-042-053>061-292000-
SOUTHWEST WISCONSIN

CITY           SKY/WX    TMP DP  RH WIND       PRES   REMARKS
LA CROSSE      CLOUDY    52  37  56 N7        30.12F
SPARTA         CLOUDY    51  38  63 E6        30.15S
VIROQUA        CLOUDY    49  38  67 NE10      30.11F
BOSCOBEL       CLOUDY    52  36  54 NE8       30.12S
PRAIRIE DU CHI CLOUDY    51  35  55 N7        30.11F
PLATTEVILLE    CLOUDY    48  39  71 NE8       30.11S
$$

WIZ056-057-062-063-064-067-068-292000-
SOUTH CENTRAL WISCONSIN

CITY           SKY/WX    TMP DP  RH WIND       PRES   REMARKS
REEDSBURG      CLOUDY    50  37  61 N9        30.12F
BARABOO/DELLS  CLOUDY    50  36  57 NE6       30.12F
LONE ROCK      NOT AVBL
MINERAL POINT  CLOUDY    50  37  62 NE9       30.10F
MADISON        PTSUNNY   52  39  61 NE13G21   30.10S
MIDDLETON      PTSUNNY   51  40  67 E13       30.11S
WATERTOWN      CLOUDY    47  38  69 N9        30.11F
MONROE         CLOUDY    45  39  81 NE6       30.11R
JANESVILLE     CLOUDY    48  39  71 E8        30.10F
$$

WIZ051-052-058>065-066-070>072-292000-
SOUTHEAST WISCONSIN

CITY           SKY/WX    TMP DP  RH WIND       PRES   REMARKS
MILWAUKEE      PTSUNNY   46  38  73 NE14      30.11R
WAUKESHA       MOSUNNY   45  36  70 NE12      30.12F
MILWAUKEE/TIMM SUNNY     48  34  57 N10G18    30.12F
RACINE         MOSUNNY   47  37  68 NE12      30.13R
BURLINGTON     CLOUDY    46  37  72 E6        30.11S
KENOSHA        PTSUNNY   48  38  68 VRB5      30.11R
FOND DU LAC    CLOUDY    51  36  56 CALM      30.13S
SHEBOYGAN      CLOUDY    50  33  52 NE9       30.15R
WEST BEND      CLOUDY    50  32  50 E13       30.12F
JUNEAU         CLOUDY    47  37  67 CALM      30.13F
$$

LSZ147-162-292000-
LAKE SUPERIOR

STATION/POSITION TIME  TEMP    WIND        PRES    WAVE
                       AIR SEA DIR/SP/G            HT/PER
                 (UTC) (F)     (DEG/KT/KT) (MB)    (FT/S)
W MID LAKE BUOY  1750   38 37   90/  8/ 10 1023.5F   1
DEVILS ISLAND    1800   38      50/  8/  8 1023.6F
SAXON HARBOR     1800   40      10/  5/  6 1022.4S
$$

LMZ867-665-643>646-292000-
LAKE MICHIGAN

STATION/POSITION TIME  TEMP    WIND        PRES    WAVE
                       AIR SEA DIR/SP/G            HT/PER
                 (UTC) (F)     (DEG/KT/KT) (MB)    (FT/S)
CHAMBERS ISLAND  1840   46     340/  4/  6 1021.3R
N MID LAKE BUOY  1750   39 39  330/  6/  8 1020.6F   1
NORTHPORT PIER   1800   44     350/  2/  5 1020.7S
ALGOMA LAKESHORE 1730           70/ 14/ 16   N/A
KEWAUNEE LAKESHO 1800   43      30/  6/ 10 1019.8F
SHEBOYGAN LAKESH 1800   41      10/  3/  4 1021.4R
PORT WASHINGTON  1800   43     150/  6/ 13 1022.0R
S MID LAKE BUOY  1750   40 40   40/ 10/ 12 1019.2F   1/ 3
KENOSHA   LAKESH 1800   41      20/ 11/ 15 1019.6F
$$

TC  - TEMPERATURE IN CELSIUS
VSB - VISIBILITY IN STATUTE MILES
WCI - WIND CHILL INDEX
HX  - HEAT INDEX





USA.gov is the U.S. government's official web portal to all federal, state and local government web resources and services.